{"data":{"norad_id":53155,"intl_designator":"2022-083Z","name":"STARLINK-4088","alt_names":[],"object_type":"PAYLOAD","status":"ACTIVE","operator":null,"country":"US","launch_date":"2022-07-17","launch_site_code":"AFETR","launch_vehicle":null,"mission":null,"orbit_class":"UNKNOWN","rcs_meters":null,"size_class":null,"mass_kg":null,"dimensions":null,"purposes":["comms"],"wikipedia_slug":null,"has_3d_model":false,"image_url":null,"decayed_at":null,"tle_current":{"epoch":"2026-05-24T15:13:44.893632Z","epoch_age_seconds":103298,"freshness":"FRESH","line1":"1 53155U 22083Z   26144.63454738  .00000376  00000+0  41711-4 0  9994","line2":"2 53155  53.2130 183.1899 0001191  91.1682 268.9446 15.08840678213465","mean_motion":15.08840678,"eccentricity":0.0001191,"inclination_deg":53.213,"raan_deg":183.1899,"arg_perigee_deg":91.1682,"mean_anomaly_deg":268.9446,"bstar":4.1711e-5,"rev_number":21346,"period_min":95.437511792746,"perigee_km":538.91739728261,"apogee_km":540.56523589762,"semimajor_km":6917.8783165901,"source":"CELESTRAK","updated_at":"2026-05-25T13:38:17.320303Z"}}}